Flight Track Log - Related Links

Times and Time Zones

All times are in EDT time to prevent confusion due to time zone crossing. See the SWA2788 flight status page for this flight to view local times or setup timezone preferences in your user account.

Time Position Orientation Groundspeed Altitude Reporting Facility
EDT Latitude Longitude Course Direction KTS MPH feet Rate Location/Type
12:49PM 33.9500 -118.4500 263° West 166 191 1,400  Level Southern California TRACON
12:50PM 33.9408 -118.5361 263° West 221 254 3,700 2,372 Climbing Los Angeles Center
12:51PM 33.9353 -118.6311 266° West 263 303 6,500 2,565 Climbing Los Angeles Center
12:52PM 33.9919 -118.6906 319° Northwest 272 313 9,000 1,210 Climbing Los Angeles Center
12:53PM 34.0647 -118.6769 North 283 326 9,000 145 Level Los Angeles Center
12:54PM 34.1328 -118.6456 21° North 274 315 9,300 1,597 Climbing Los Angeles Center
12:55PM 34.2231 -118.6286 North 301 346 12,300 2,640 Climbing Los Angeles Center
12:56PM 34.3183 -118.6689 341° North 340 391 14,800 2,496 Climbing Los Angeles Center
12:57PM 34.4158 -118.7050 343° North 364 419 17,500 2,468 Climbing Los Angeles Center
12:58PM 34.5169 -118.7453 342° North 381 438 19,900 2,371 Climbing Los Angeles Center
12:59PM 34.6228 -118.7867 342° North 394 453 22,400 2,177 Climbing Los Angeles Center
01:00PM 34.7308 -118.8339 340° North 409 471 24,400 1,935 Climbing Los Angeles Center
01:01PM 34.8394 -118.8978 334° Northwest 436 502 26,400 2,129 Climbing Los Angeles Center
01:02PM 34.9531 -119.0092 321° Northwest 440 506 28,800 2,081 Climbing Los Angeles Center
01:04PM 35.0519 -119.1058 321° Northwest 449 517 30,700 2,032 Climbing Los Angeles Center
01:05PM 35.1506 -119.2014 322° Northwest 453 521 33,000 2,274 Climbing Los Angeles Center
01:06PM 35.2461 -119.2944 322° Northwest 446 513 35,400 1,452 Climbing Los Angeles Center
01:07PM 35.3392 -119.3867 321° Northwest 435 501 36,000 290 Climbing Los Angeles Center
01:08PM 35.4328 -119.4781 322° Northwest 434 499 36,000  Level Los Angeles Center
01:09PM 35.5453 -119.5897 321° Northwest 436 502 36,000  Level Los Angeles Center
01:10PM 35.6378 -119.6828 321° Northwest 435 501 36,000  Level Los Angeles Center
01:10PM 35.6922 -119.7350 322° Northwest 433 498 36,000  Level Oakland Center
01:11PM 35.7828 -119.8272 320° Northwest 430 495 36,000  Level Oakland Center
01:12PM 35.8744 -119.9211 320° Northwest 429 494 36,000  Level Oakland Center
01:13PM 35.9661 -120.0119 321° Northwest 429 494 36,000  Level Oakland Center
01:14PM 36.0569 -120.1050 320° Northwest 429 494 36,000  Level Oakland Center
01:15PM 36.1483 -120.1989 320° Northwest 429 494 36,000  Level Oakland Center
01:16PM 36.2586 -120.3103 321° Northwest 429 494 36,000 -244 Level Oakland Center
01:17PM 36.3486 -120.4044 320° Northwest 428 493 35,500 -1,463 Descending Oakland Center
01:18PM 36.4381 -120.4944 321° Northwest 421 484 33,000 -2,537 Descending Oakland Center
01:20PM 36.5275 -120.5889 320° Northwest 422 486 30,300 -2,390 Descending Oakland Center
01:21PM 36.6156 -120.6792 321° Northwest 415 478 28,100 -2,098 Descending Oakland Center
01:22PM 36.7006 -120.7678 320° Northwest 407 468 26,000 -2,049 Descending Oakland Center
01:23PM 36.7806 -120.8561 319° Northwest 390 449 23,900 -2,195 Descending Oakland Center
01:24PM 36.8697 -120.9567 318° Northwest 377 434 21,500 -2,341 Descending Oakland Center
01:25PM 36.9436 -121.0406 318° Northwest 366 421 19,100 -2,146 Descending Oakland Center
01:26PM 37.0161 -121.1228 318° Northwest 358 412 17,100 -1,951 Descending Oakland Center
01:27PM 37.0833 -121.2064 315° West 350 403 15,100 -1,902 Descending Oakland Center
01:28PM 37.1531 -121.2836 319° Northwest 334 384 13,200 -1,839 Descending Oakland Center
01:29PM 37.2192 -121.3586 318° Northwest 324 373 11,300 -1,463 Descending Oakland Center
01:30PM 37.2806 -121.4331 316° Northwest 309 356 10,200 -1,122 Descending Oakland Center
01:31PM 37.3472 -121.5089 318° Northwest 274 315 9,000 -1,269 Descending Oakland Center
01:31PM 37.3833 -121.5500 318° Northwest 259 298 8,000 -1,111 Descending Northern Cal TRACON
01:33PM 37.4500 -121.6167 322° Northwest 266 306 7,000 -942 Descending Northern Cal TRACON
01:34PM 37.4833 -121.6833 302° West 266 306 6,100 -500 Descending Northern Cal TRACON
01:35PM 37.5333 -121.7667 307° West 269 310 6,000 -550 Descending Northern Cal TRACON
01:36PM 37.5333 -121.8500 270° West 264 304 5,000 -750 Descending Northern Cal TRACON
01:37PM 37.5500 -121.9333 284° West 236 272 4,500 -650 Descending Northern Cal TRACON
01:38PM 37.5667 -122.0000 288° West 223 257 3,700 -783 Descending Northern Cal TRACON
01:39PM 37.6000 -122.0667 302° West 214 246 3,000 -850 Descending Northern Cal TRACON
01:40PM 37.6333 -122.1167 310° West 192 221 2,000 -900 Descending Northern Cal TRACON
01:41PM 37.6667 -122.1667 310° West 156 180 1,200 -800 Descending Northern Cal TRACON
01:42PM 37.7000 -122.2000 322° Northwest 138 159 400 -800 Descending Northern Cal TRACON
01:44PM 37.7167 -122.2167 270° West  Level FlightAware Approximate

Login

Don't have an account? Register now (free) for customized features, flight alerts, and more!